TimeEST,TemperatureF,Dew PointF,Humidity,Sea Level PressureIn,VisibilityMPH,Wind Direction,Wind SpeedMPH,Gust SpeedMPH,PrecipitationIn,Events,Conditions,WindDirDegrees,DateUTC
12:28 AM,66.2,64.4,94,30.08,10.0,SSE,8.1,-,N/A,,Mostly Cloudy,150,2011-12-27 05:28:00
12:35 AM,66.2,64.4,94,30.08,10.0,SSE,8.1,-,N/A,,Mostly Cloudy,150,2011-12-27 05:35:00
12:53 AM,66.9,64.9,93,30.07,10.0,SSE,10.4,-,N/A,,Mostly Cloudy,150,2011-12-27 05:53:00
1:32 AM,66.2,66.2,100,30.06,10.0,SSE,15.0,-,N/A,,Overcast,150,2011-12-27 06:32:00
1:53 AM,66.9,66.0,97,30.06,10.0,SSE,13.8,-,N/A,,Overcast,160,2011-12-27 06:53:00
2:21 AM,66.2,66.2,100,30.03,10.0,South,15.0,-,N/A,,Overcast,170,2011-12-27 07:21:00
2:53 AM,66.9,66.0,97,30.01,10.0,South,19.6,-,N/A,,Overcast,170,2011-12-27 07:53:00
3:11 AM,66.2,66.2,100,30.01,10.0,South,17.3,-,N/A,,Overcast,170,2011-12-27 08:11:00
3:53 AM,66.9,66.0,97,30.00,10.0,South,13.8,-,N/A,,Mostly Cloudy,170,2011-12-27 08:53:00
4:01 AM,66.2,66.2,100,30.00,10.0,South,13.8,-,N/A,,Scattered Clouds,170,2011-12-27 09:01:00
4:53 AM,66.9,66.9,100,29.99,10.0,South,12.7,-,N/A,,Mostly Cloudy,170,2011-12-27 09:53:00
5:06 AM,66.2,66.2,100,30.00,10.0,South,11.5,-,N/A,,Scattered Clouds,180,2011-12-27 10:06:00
5:53 AM,66.9,66.9,100,29.99,10.0,South,13.8,-,N/A,,Clear,170,2011-12-27 10:53:00
6:08 AM,66.2,66.2,100,30.01,10.0,South,12.7,-,N/A,,Partly Cloudy,180,2011-12-27 11:08:00
6:29 AM,66.2,66.2,100,30.03,10.0,SSW,8.1,-,N/A,,Mostly Cloudy,200,2011-12-27 11:29:00
6:53 AM,66.9,66.9,100,30.02,10.0,SSW,10.4,-,N/A,,Overcast,200,2011-12-27 11:53:00
7:48 AM,68.0,68.0,100,30.01,10.0,South,13.8,-,N/A,,Overcast,190,2011-12-27 12:48:00
7:53 AM,69.1,68.0,96,30.01,10.0,South,13.8,-,N/A,,Overcast,190,2011-12-27 12:53:00
8:02 AM,69.8,68.0,94,30.01,10.0,SSW,13.8,-,N/A,,Overcast,200,2011-12-27 13:02:00
8:53 AM,70.0,69.1,97,30.04,10.0,SW,10.4,-,0.00,,Overcast,230,2011-12-27 13:53:00
9:18 AM,69.8,69.8,100,30.04,10.0,SW,10.4,-,N/A,,Overcast,230,2011-12-27 14:18:00
9:35 AM,69.8,69.8,100,30.04,10.0,SW,9.2,-,N/A,,Overcast,220,2011-12-27 14:35:00
9:43 AM,69.8,69.8,100,30.04,10.0,SW,9.2,-,N/A,,Overcast,220,2011-12-27 14:43:00
9:53 AM,70.0,69.1,97,30.04,10.0,SW,6.9,-,N/A,,Overcast,220,2011-12-27 14:53:00
10:00 AM,69.8,69.8,100,30.04,1.8,SW,8.1,-,0.04,Rain,Rain,220,2011-12-27 15:00:00
10:05 AM,69.8,69.8,100,30.03,1.0,SSW,5.8,-,0.09,Rain,Heavy Rain,200,2011-12-27 15:05:00
10:22 AM,69.8,69.8,100,30.03,3.0,WSW,8.1,18.4,0.18,Rain,Light Rain,250,2011-12-27 15:22:00
10:53 AM,70.0,70.0,100,30.01,7.0,SSW,8.1,-,0.18,Rain,Light Rain,210,2011-12-27 15:53:00
11:00 AM,69.8,69.8,100,30.01,10.0,SW,9.2,-,0.00,,Mostly Cloudy,230,2011-12-27 16:00:00
11:53 AM,71.1,69.1,93,29.98,10.0,SW,12.7,23.0,0.00,,Mostly Cloudy,230,2011-12-27 16:53:00
12:14 PM,71.6,69.8,94,29.98,10.0,SW,12.7,18.4,N/A,Thunderstorm,Overcast,230,2011-12-27 17:14:00
12:22 PM,71.6,69.8,94,29.97,10.0,SW,10.4,18.4,N/A,Thunderstorm,Overcast,230,2011-12-27 17:22:00
12:29 PM,71.6,69.8,94,29.97,9.0,SW,10.4,20.7,0.00,Rain,Light Rain,230,2011-12-27 17:29:00
12:41 PM,69.8,68.0,94,29.96,1.5,NNW,19.6,33.4,0.08,Rain,Rain,340,2011-12-27 17:41:00
12:54 PM,66.2,66.2,100,29.97,1.0,North,11.5,-,0.01,Rain,Light Rain,350,2011-12-27 17:54:00
12:59 PM,66.2,66.2,100,29.97,4.0,NNW,12.7,-,0.01,Rain,Light Rain,330,2011-12-27 17:59:00
1:06 PM,66.2,64.4,94,29.96,10.0,NNW,8.1,-,0.01,,Overcast,340,2011-12-27 18:06:00
1:53 PM,66.9,64.0,90,29.94,10.0,NNW,8.1,-,0.01,,Overcast,330,2011-12-27 18:53:00
3:53 PM,66.9,63.0,87,29.95,10.0,NW,9.2,-,N/A,,Overcast,310,2011-12-27 20:53:00
4:53 PM,66.9,59.0,76,29.96,10.0,NW,9.2,18.4,N/A,,Overcast,310,2011-12-27 21:53:00
5:11 PM,66.2,59.0,78,29.97,10.0,NW,13.8,24.2,N/A,,Overcast,310,2011-12-27 22:11:00
5:53 PM,64.9,57.9,78,29.98,10.0,NW,9.2,17.3,N/A,,Overcast,320,2011-12-27 22:53:00
6:53 PM,64.0,55.9,75,30.00,10.0,NW,8.1,-,N/A,,Partly Cloudy,310,2011-12-27 23:53:00
9:53 PM,63.0,53.1,70,30.05,10.0,NW,11.5,19.6,N/A,,Mostly Cloudy,310,2011-12-28 02:53:00
10:53 PM,63.0,52.0,67,30.07,10.0,NNW,15.0,20.7,N/A,,Overcast,330,2011-12-28 03:53:00
11:53 PM,63.0,52.0,67,30.08,10.0,NNW,11.5,-,N/A,,Mostly Cloudy,330,2011-12-28 04:53:00